Location: Most
(50.5133°N, 13.6207°E)
Time: 09:46:45
(UTC+02:00)

ISS - Pass Details

Date: 21 July 2018
Orbit: 402 x 408 km, 51.6° (Epoch: 17 July)

Event Time Altitude Azimuth Distance (km) Brightness Sun altitude
Rises 02:58:23 0° 286° (WNW) 2,331 -0.1 -15.2°
Reaches altitude 10° 03:00:30 10° 282° (WNW) 1,469 -1.1 -15.0°
Maximum altitude 03:03:44 58° 203° (SSW) 480 -3.8 -14.8°
Drops below altitude 10° 03:06:58 10° 123° (ESE) 1,466 -1.1 -14.6°
Sets 03:09:04 0° 120° (ESE) 2,324 0.0 -14.4°
